Tracking 25648 objects as of 17-May-2022
HD Live streaming from Space Station
objects crossing your sky now

COSMOS 2251 DEB

Track COSMOS 2251 DEB now!
10-day predictions


NORAD ID: 37123
Int'l Code: 1993-036BGV
Perigee: 653.6 km
Apogee: 671.9 km
Inclination: 74.0 °
Period: 97.8 minutes
Semi major axis: 7033 km
RCS: 0.0141 m2 (small)
Launch date: June 16, 1993
Source: Commonwealth of Independent States (former USSR) (CIS)
Launch site: PLESETSK MISSILE AND SPACE COMPLEX (PKMTR)

Note: This is SATELLITE DEBRIS
aabbcc
Your satellite tracking list
Your tracking list is empty




NASA's NSSDC Master Catalog

Two Line Element Set (TLE):
1 37123U 93036BGV 22137.44370588  .00014835  00000-0  23754-2 0  9995
2 37123  73.9908 200.2825 0012987 312.5707  58.3617 14.71714489471463
Source of the keplerian elements: AFSPC